Regional Weather Roundup
Issued by NWS

Home | Current Version | Previous Version | Text Only | Print | Product List | Glossary On
Versions: 1 2 3 4 5 6 7 8 9 10 11 12 13 14 15 16 17 18 19 20 21 22 23 24 25 26 27 28 29 30 31 32 33 34 35 36 37 38 39 40 41 42 43 44 45 46 47 48 49 50
531
ASPQ40 PGUM 250512
RWRPQ
WEATHER ROUNDUP FOR THE MARIANAS AND MICRONESIA
NATIONAL WEATHER SERVICE TIYAN GU
300 PM CHST THU MAY 25 2017

GUZ001>004-250600-
MARIANA ISLANDS-

CITY           SKY/WX    TMP DP  RH WIND       PRES   REMARKS
GUAM AIRPORT   SUNNY     88  75  66 E10G17    29.85F HX  97
ANDERSEN AFB   SUNNY     86  73  66 SE10      29.86F HX  93
ROTA AIRPORT   MOSUNNY   84  75  74 E13       29.85F HX  92
TINIAN AP      MOSUNNY   86  73  66 E12       29.83F HX  93
SAIPAN AP      MOSUNNY   90  73  58 E12       29.84F HX  98

$$

PMZ161-250600-
REPUBLIC OF PALAU-

CITY           SKY/WX    TMP DP  RH WIND       PRES   REMARKS
KOROR AP       PTSUNNY   86  77  74 NW6       29.78F HX  97
KOROR WSO      CLOUDY    88  77  70 W7        29.79F HX 100

$$

PMZ171>174-250600-
FEDERATED STATES OF MICRONESIA-

CITY           SKY/WX    TMP DP  RH WIND       PRES   REMARKS
YAP AIRPORT    PTSUNNY   86  81  84 SE8       29.77F HX 102
CHUUK AP       PTSUNNY   88  82  84 N10       29.77F HX 108
POHNPEI AP     NOT AVBL
POHNPEI WSO    CLOUDY    88  77  70 E3        29.81S HX 100
KOSRAE AP      NOT AVBL

$$

PMZ181-250600-
REPUBLIC OF THE MARSHALL ISLANDS-

CITY           SKY/WX    TMP DP  RH WIND       PRES   REMARKS
KWAJALEIN AP   SUNNY     88  73  62 E13       29.80S HX  96
MAJURO AP      NOT AVBL
MAJURO WSO     CLOUDY    86  75  70 S15       29.78R HX  95

$$





USA.gov is the U.S. government's official web portal to all federal, state and local government web resources and services.